Time,TemperatureF,DewpointF,PressureIn,WindDirection,WindDirectionDegrees,WindSpeedMPH,WindSpeedGustMPH,Humidity,HourlyPrecipIn,Conditions,Clouds,dailyrainin,SoftwareType,DateUTC
2013-02-15 00:00:00,34.6,30.0,29.89,SSE,165,0.0,2.0,83,0.00,,OVC075,0.07,VWS V13.01,2013-02-15 05:00:00,
2013-02-15 00:03:00,34.7,30.1,29.90,SSE,165,0.0,2.0,83,0.00,,OVC075,0.00,VWS V13.01,2013-02-15 05:03:00,
2013-02-15 00:08:00,34.7,30.1,29.90,SSE,165,0.0,0.0,83,0.00,,OVC075,0.00,VWS V13.01,2013-02-15 05:08:00,
2013-02-15 00:13:00,34.5,29.9,29.90,SSE,165,0.0,0.0,83,0.00,,OVC075,0.00,VWS V13.01,2013-02-15 05:13:00,
2013-02-15 00:18:00,34.4,29.8,29.90,SSE,165,0.0,1.0,83,0.00,,OVC075,0.00,VWS V13.01,2013-02-15 05:18:00,
2013-02-15 00:23:00,34.3,29.7,29.90,SSE,165,0.0,1.0,83,0.00,,OVC075,0.00,VWS V13.01,2013-02-15 05:23:00,
2013-02-15 00:28:00,34.1,29.5,29.90,SSE,165,0.0,1.0,83,0.00,,OVC075,0.00,VWS V13.01,2013-02-15 05:28:00,
2013-02-15 00:33:00,33.9,29.3,29.90,SSE,164,0.0,0.0,83,0.00,,OVC075,0.00,VWS V13.01,2013-02-15 05:33:00,
2013-02-15 00:38:00,33.7,29.1,29.90,SSE,164,0.0,0.0,83,0.00,,BKN080,0.00,VWS V13.01,2013-02-15 05:38:00,
2013-02-15 00:43:00,33.5,29.2,29.90,SSE,164,0.0,3.0,84,0.00,,BKN080,0.00,VWS V13.01,2013-02-15 05:43:00,
2013-02-15 00:48:00,33.5,29.2,29.91,SSE,164,0.0,3.0,84,0.00,,BKN080,0.00,VWS V13.01,2013-02-15 05:48:00,
2013-02-15 00:53:00,33.6,29.3,29.90,South,182,0.0,6.0,84,0.00,,BKN080,0.00,VWS V13.01,2013-02-15 05:53:00,
2013-02-15 00:58:00,34.1,29.8,29.90,SSW,203,0.0,6.0,84,0.00,,BKN080,0.00,VWS V13.01,2013-02-15 05:58:00,
2013-02-15 01:03:00,34.7,29.8,29.90,SSE,153,6.0,9.0,82,0.00,,BKN080,0.00,VWS V13.01,2013-02-15 06:03:00,
2013-02-15 01:08:00,35.4,29.9,29.90,SSE,160,0.0,11.0,80,0.00,,BKN080,0.00,VWS V13.01,2013-02-15 06:08:00,
2013-02-15 01:13:00,36.1,29.9,29.90,SSE,162,0.0,11.0,78,0.00,,BKN080,0.00,VWS V13.01,2013-02-15 06:13:00,
2013-02-15 01:18:00,36.5,29.7,29.90,SSE,166,3.0,11.0,76,0.00,,BKN080,0.00,VWS V13.01,2013-02-15 06:18:00,
2013-02-15 01:23:00,37.0,29.8,29.91,SW,225,0.0,11.0,75,0.00,,BKN080,0.00,VWS V13.01,2013-02-15 06:23:00,
2013-02-15 01:28:00,37.3,30.1,29.91,WNW,294,3.0,11.0,75,0.00,,BKN080,0.00,VWS V13.01,2013-02-15 06:28:00,
2013-02-15 01:33:00,37.4,30.2,29.91,WNW,295,0.0,0.0,75,0.00,,BKN060,0.00,VWS V13.01,2013-02-15 06:33:00,
2013-02-15 01:38:00,37.4,30.2,29.90,SW,221,3.0,3.0,75,0.00,,BKN060,0.00,VWS V13.01,2013-02-15 06:38:00,
2013-02-15 01:43:00,37.7,30.2,29.91,SW,220,0.0,3.0,74,0.00,,BKN060,0.00,VWS V13.01,2013-02-15 06:43:00,
2013-02-15 01:48:00,37.8,30.3,29.92,SSW,211,0.0,5.0,74,0.00,,BKN060,0.00,VWS V13.01,2013-02-15 06:48:00,
2013-02-15 01:53:00,37.9,30.4,29.92,South,184,2.0,5.0,74,0.00,,BKN060,0.00,VWS V13.01,2013-02-15 06:53:00,
2013-02-15 01:58:00,37.9,30.4,29.91,South,177,0.0,5.0,74,0.00,,BKN060,0.00,VWS V13.01,2013-02-15 06:58:00,
2013-02-15 02:03:00,37.9,30.4,29.91,South,177,0.0,0.0,74,0.00,,BKN060,0.00,VWS V13.01,2013-02-15 07:03:00,
2013-02-15 02:08:00,37.9,30.4,29.91,SSW,195,0.0,2.0,74,0.00,,BKN060,0.00,VWS V13.01,2013-02-15 07:08:00,
2013-02-15 02:13:00,37.8,29.9,29.91,South,177,0.0,4.0,73,0.00,,BKN060,0.00,VWS V13.01,2013-02-15 07:13:00,
2013-02-15 02:18:00,37.8,29.9,29.91,South,190,0.0,4.0,73,0.00,,BKN060,0.00,VWS V13.01,2013-02-15 07:18:00,
2013-02-15 02:23:00,37.8,29.9,29.90,SSW,193,0.0,4.0,73,0.00,,BKN060,0.00,VWS V13.01,2013-02-15 07:23:00,
2013-02-15 02:28:00,37.9,29.4,29.90,SW,214,1.0,4.0,71,0.00,,BKN060,0.00,VWS V13.01,2013-02-15 07:28:00,
2013-02-15 02:33:00,38.2,29.3,29.90,WSW,241,1.0,7.0,70,0.00,,BKN060,0.00,VWS V13.01,2013-02-15 07:33:00,
2013-02-15 02:38:00,38.4,29.5,29.89,SSE,147,0.0,7.0,70,0.00,,BKN065,0.00,VWS V13.01,2013-02-15 07:38:00,
2013-02-15 02:43:00,38.4,29.5,29.90,SSE,147,0.0,7.0,70,0.00,,BKN065,0.00,VWS V13.01,2013-02-15 07:43:00,
2013-02-15 02:48:00,38.4,29.1,29.89,SSE,147,0.0,7.0,69,0.00,,BKN065,0.00,VWS V13.01,2013-02-15 07:48:00,
2013-02-15 02:53:00,38.2,29.3,29.89,SSE,147,0.0,7.0,70,0.00,,BKN065,0.00,VWS V13.01,2013-02-15 07:53:00,
2013-02-15 02:58:00,38.2,29.3,29.89,SSW,204,0.0,8.0,70,0.00,,BKN065,0.00,VWS V13.01,2013-02-15 07:58:00,
2013-02-15 03:03:00,38.2,28.9,29.89,SSW,196,0.0,5.0,69,0.00,,BKN065,0.00,VWS V13.01,2013-02-15 08:03:00,
2013-02-15 03:08:00,38.0,29.1,29.89,SSW,196,0.0,5.0,70,0.00,,BKN065,0.00,VWS V13.01,2013-02-15 08:08:00,
2013-02-15 03:13:00,37.7,29.5,29.89,SSW,196,0.0,5.0,72,0.00,,BKN065,0.00,VWS V13.01,2013-02-15 08:13:00,
2013-02-15 03:18:00,37.3,29.1,29.90,SSW,196,0.0,5.0,72,0.00,,BKN065,0.00,VWS V13.01,2013-02-15 08:18:00,
2013-02-15 03:23:00,37.1,28.9,29.89,SSW,196,0.0,5.0,72,0.00,,BKN065,0.00,VWS V13.01,2013-02-15 08:23:00,
2013-02-15 03:28:00,37.1,28.9,29.90,SSW,203,1.0,5.0,72,0.00,,BKN065,0.00,VWS V13.01,2013-02-15 08:28:00,
2013-02-15 03:33:00,37.1,28.9,29.90,SSW,203,0.0,0.0,72,0.00,,SCT065,0.00,VWS V13.01,2013-02-15 08:33:00,
2013-02-15 03:38:00,37.1,28.9,29.89,SSW,203,0.0,0.0,72,0.00,,SCT065,0.00,VWS V13.01,2013-02-15 08:38:00,
2013-02-15 03:43:00,37.0,29.2,29.89,SSW,203,0.0,0.0,73,0.00,,SCT065,0.00,VWS V13.01,2013-02-15 08:43:00,
2013-02-15 03:48:00,36.9,29.1,29.90,SSW,203,0.0,0.0,73,0.00,,SCT065,0.00,VWS V13.01,2013-02-15 08:48:00,
2013-02-15 03:53:00,36.9,29.1,29.89,SSW,203,0.0,2.0,73,0.00,,SCT065,0.00,VWS V13.01,2013-02-15 08:53:00,
2013-02-15 03:58:00,36.9,29.1,29.89,SSW,203,0.0,2.0,73,0.00,,SCT065,0.00,VWS V13.01,2013-02-15 08:58:00,
2013-02-15 04:03:00,36.9,29.1,29.90,SSW,212,0.0,2.0,73,0.00,,SCT065,0.00,VWS V13.01,2013-02-15 09:03:00,
2013-02-15 04:08:00,36.9,29.1,29.89,SSW,212,0.0,2.0,73,0.00,,SCT065,0.00,VWS V13.01,2013-02-15 09:08:00,
2013-02-15 04:13:00,36.9,29.1,29.89,SW,215,2.0,3.0,73,0.00,,SCT065,0.00,VWS V13.01,2013-02-15 09:13:00,
2013-02-15 04:18:00,36.9,29.4,29.90,SW,215,0.0,3.0,74,0.00,,SCT065,0.00,VWS V13.01,2013-02-15 09:18:00,
2013-02-15 04:23:00,36.9,29.4,29.90,SW,215,0.0,3.0,74,0.00,,SCT065,0.00,VWS V13.01,2013-02-15 09:23:00,
2013-02-15 04:28:00,37.0,29.2,29.89,WSW,238,0.0,3.0,73,0.00,,SCT065,0.00,VWS V13.01,2013-02-15 09:28:00,
2013-02-15 04:33:00,37.2,29.0,29.90,WSW,252,0.0,4.0,72,0.00,,SCT065,0.00,VWS V13.01,2013-02-15 09:33:00,
2013-02-15 04:38:00,37.4,29.2,29.89,West,265,1.0,5.0,72,0.00,,BKN055,0.00,VWS V13.01,2013-02-15 09:38:00,
2013-02-15 04:43:00,37.7,29.2,29.90,WSW,257,3.0,5.0,71,0.00,,BKN055,0.00,VWS V13.01,2013-02-15 09:43:00,
2013-02-15 04:48:00,37.9,29.0,29.90,WSW,256,2.0,6.0,70,0.00,,BKN055,0.00,VWS V13.01,2013-02-15 09:48:00,
2013-02-15 04:53:00,38.1,29.2,29.90,South,173,2.0,6.0,70,0.00,,BKN055,0.00,VWS V13.01,2013-02-15 09:53:00,
2013-02-15 04:58:00,38.1,29.2,29.90,SSW,211,2.0,6.0,70,0.00,,BKN055,0.00,VWS V13.01,2013-02-15 09:58:00,
2013-02-15 05:03:00,38.1,29.5,29.91,SW,217,0.0,4.0,71,0.00,,BKN055,0.00,VWS V13.01,2013-02-15 10:03:00,
2013-02-15 05:08:00,38.1,29.5,29.90,SW,225,3.0,4.0,71,0.00,,BKN055,0.00,VWS V13.01,2013-02-15 10:08:00,
2013-02-15 05:13:00,38.2,29.3,29.91,SW,222,2.0,4.0,70,0.00,,BKN055,0.00,VWS V13.01,2013-02-15 10:13:00,
2013-02-15 05:18:00,38.2,29.6,29.90,WSW,247,1.0,4.0,71,0.00,,BKN055,0.00,VWS V13.01,2013-02-15 10:18:00,
2013-02-15 05:23:00,38.1,29.5,29.91,WSW,253,2.0,4.0,71,0.00,,BKN055,0.00,VWS V13.01,2013-02-15 10:23:00,
2013-02-15 05:28:00,38.1,29.2,29.91,SW,218,4.0,4.0,70,0.00,,BKN055,0.00,VWS V13.01,2013-02-15 10:28:00,
2013-02-15 05:33:00,38.2,29.3,29.91,SW,215,2.0,6.0,70,0.00,,OVC048,0.00,VWS V13.01,2013-02-15 10:33:00,
2013-02-15 05:38:00,38.3,29.4,29.91,SW,217,0.0,6.0,70,0.00,,OVC048,0.00,VWS V13.01,2013-02-15 10:38:00,
2013-02-15 05:43:00,38.3,29.4,29.91,SSW,205,0.0,6.0,70,0.00,,OVC048,0.00,VWS V13.01,2013-02-15 10:43:00,
2013-02-15 05:48:00,38.2,29.3,29.91,West,270,1.0,6.0,70,0.00,,OVC048,0.00,VWS V13.01,2013-02-15 10:48:00,
2013-02-15 05:53:00,38.1,29.5,29.91,West,259,1.0,6.0,71,0.00,,OVC048,0.00,VWS V13.01,2013-02-15 10:53:00,
2013-02-15 05:58:00,38.0,29.1,29.91,SW,236,2.0,6.0,70,0.00,,OVC048,0.00,VWS V13.01,2013-02-15 10:58:00,
2013-02-15 06:03:00,37.8,29.3,29.91,WSW,245,1.0,4.0,71,0.00,,OVC048,0.00,VWS V13.01,2013-02-15 11:03:00,
2013-02-15 06:08:00,37.7,29.2,29.91,SW,236,0.0,5.0,71,0.00,,OVC048,0.00,VWS V13.01,2013-02-15 11:08:00,
2013-02-15 06:13:00,37.7,29.2,29.90,West,269,2.0,5.0,71,0.00,,OVC048,0.00,VWS V13.01,2013-02-15 11:13:00,
2013-02-15 06:18:00,37.6,29.1,29.90,West,272,0.0,5.0,71,0.00,,OVC048,0.00,VWS V13.01,2013-02-15 11:18:00,
2013-02-15 06:23:00,37.3,29.1,29.91,West,272,0.0,5.0,72,0.00,,OVC048,0.00,VWS V13.01,2013-02-15 11:23:00,
2013-02-15 06:28:00,37.0,28.8,29.91,SW,218,0.0,5.0,72,0.00,,OVC048,0.00,VWS V13.01,2013-02-15 11:28:00,
2013-02-15 06:33:00,36.7,28.9,29.91,SW,218,1.0,1.0,73,0.00,,OVC048,0.00,VWS V13.01,2013-02-15 11:33:00,
2013-02-15 06:38:00,36.5,28.7,29.91,SW,218,0.0,2.0,73,0.00,,OVC048,0.00,VWS V13.01,2013-02-15 11:38:00,
2013-02-15 06:43:00,36.3,28.8,29.91,SW,215,0.0,2.0,74,0.00,,OVC048,0.00,VWS V13.01,2013-02-15 11:43:00,
2013-02-15 06:48:00,36.0,28.5,29.91,SSW,203,2.0,3.0,74,0.00,,OVC048,0.00,VWS V13.01,2013-02-15 11:48:00,
2013-02-15 06:53:00,35.8,28.7,29.92,SW,220,0.0,3.0,75,0.00,,OVC048,0.00,VWS V13.01,2013-02-15 11:53:00,
2013-02-15 06:58:00,35.6,28.5,29.92,SW,220,0.0,3.0,75,0.00,,OVC048,0.00,VWS V13.01,2013-02-15 11:58:00,
2013-02-15 07:03:00,35.1,28.3,29.92,SW,220,0.0,2.0,76,0.00,,OVC048,0.00,VWS V13.01,2013-02-15 12:03:00,
2013-02-15 07:08:00,34.9,28.4,29.92,West,259,0.0,3.0,77,0.00,,OVC048,0.00,VWS V13.01,2013-02-15 12:08:00,
2013-02-15 07:13:00,34.7,28.2,29.92,West,259,0.0,3.0,77,0.00,,OVC048,0.00,VWS V13.01,2013-02-15 12:13:00,
2013-02-15 07:18:00,34.6,28.5,29.93,SW,228,1.0,3.0,78,0.00,,OVC048,0.00,VWS V13.01,2013-02-15 12:18:00,
2013-02-15 07:23:00,34.8,28.6,29.93,SSW,194,0.0,3.0,78,0.00,,OVC048,0.00,VWS V13.01,2013-02-15 12:23:00,
2013-02-15 07:28:00,35.0,28.9,29.93,SSW,207,0.0,3.0,78,0.00,,OVC048,0.00,VWS V13.01,2013-02-15 12:28:00,
2013-02-15 07:33:00,35.3,28.8,29.93,SW,217,0.0,2.0,77,0.00,,OVC048,0.00,VWS V13.01,2013-02-15 12:33:00,
2013-02-15 07:38:00,35.5,29.0,29.93,SSW,211,0.0,3.0,77,0.00,,SCT046,0.00,VWS V13.01,2013-02-15 12:38:00,
2013-02-15 07:43:00,35.8,29.0,29.94,SSW,207,0.0,4.0,76,0.00,,SCT046,0.00,VWS V13.01,2013-02-15 12:43:00,
2013-02-15 07:48:00,35.9,29.1,29.94,SW,231,0.0,4.0,76,0.00,,SCT046,0.00,VWS V13.01,2013-02-15 12:48:00,
2013-02-15 07:53:00,36.1,29.3,29.94,SW,220,2.0,4.0,76,0.00,,SCT046,0.00,VWS V13.01,2013-02-15 12:53:00,
2013-02-15 07:58:00,36.3,29.5,29.93,SSW,212,0.0,4.0,76,0.00,,SCT046,0.00,VWS V13.01,2013-02-15 12:58:00,
2013-02-15 08:03:00,36.5,29.3,29.94,SW,214,1.0,2.0,75,0.00,,SCT046,0.00,VWS V13.01,2013-02-15 13:03:00,
2013-02-15 08:08:00,36.8,29.6,29.94,SW,215,0.0,2.0,75,0.00,,SCT046,0.00,VWS V13.01,2013-02-15 13:08:00,
2013-02-15 08:13:00,37.0,29.8,29.94,SSW,197,1.0,4.0,75,0.00,,SCT046,0.00,VWS V13.01,2013-02-15 13:13:00,
2013-02-15 08:18:00,37.3,29.8,29.94,South,185,2.0,5.0,74,0.00,,SCT046,0.00,VWS V13.01,2013-02-15 13:18:00,
2013-02-15 08:23:00,37.5,30.0,29.94,SSW,201,1.0,5.0,74,0.00,,SCT046,0.00,VWS V13.01,2013-02-15 13:23:00,
2013-02-15 08:28:00,37.7,30.2,29.94,SSW,203,1.0,5.0,74,0.00,,SCT046,0.00,VWS V13.01,2013-02-15 13:28:00,
2013-02-15 08:33:00,38.1,30.6,29.95,SW,222,2.0,3.0,74,0.00,,BKN046,0.00,VWS V13.01,2013-02-15 13:33:00,
2013-02-15 08:38:00,38.3,30.4,29.95,SSW,211,3.0,5.0,73,0.00,,BKN046,0.00,VWS V13.01,2013-02-15 13:38:00,
2013-02-15 08:43:00,38.6,30.7,29.95,SW,220,2.0,5.0,73,0.00,,BKN046,0.00,VWS V13.01,2013-02-15 13:43:00,
2013-02-15 08:48:00,38.9,31.0,29.95,SW,231,1.0,5.0,73,0.00,,BKN046,0.00,VWS V13.01,2013-02-15 13:48:00,
2013-02-15 08:53:00,39.2,31.3,29.94,SW,226,0.0,5.0,73,0.00,,BKN046,0.00,VWS V13.01,2013-02-15 13:53:00,
2013-02-15 08:58:00,39.7,31.4,29.94,SW,230,3.0,5.0,72,0.00,,BKN046,0.00,VWS V13.01,2013-02-15 13:58:00,
2013-02-15 09:03:00,40.2,31.6,29.94,SSW,193,4.0,5.0,71,0.00,,BKN046,0.00,VWS V13.01,2013-02-15 14:03:00,
2013-02-15 09:08:00,40.8,31.4,29.95,SSW,212,1.0,5.0,69,0.00,,BKN046,0.00,VWS V13.01,2013-02-15 14:08:00,
2013-02-15 09:13:00,41.5,32.1,29.94,West,263,2.0,5.0,69,0.00,,BKN046,0.00,VWS V13.01,2013-02-15 14:13:00,
2013-02-15 09:18:00,42.0,32.2,29.94,SW,228,2.0,6.0,68,0.00,,BKN046,0.00,VWS V13.01,2013-02-15 14:18:00,
2013-02-15 09:23:00,42.7,32.5,29.95,SW,215,1.0,6.0,67,0.00,,BKN046,0.00,VWS V13.01,2013-02-15 14:23:00,
2013-02-15 09:28:00,43.2,32.6,29.95,South,184,3.0,6.0,66,0.00,,BKN046,0.00,VWS V13.01,2013-02-15 14:28:00,
2013-02-15 09:33:00,43.7,33.5,29.95,SSW,202,3.0,8.0,67,0.00,,BKN046,0.00,VWS V13.01,2013-02-15 14:33:00,
2013-02-15 09:38:00,44.1,33.5,29.95,South,170,3.0,8.0,66,0.00,,CLR,0.00,VWS V13.01,2013-02-15 14:38:00,
2013-02-15 09:43:00,44.5,33.9,29.95,SSE,155,2.0,8.0,66,0.00,,CLR,0.00,VWS V13.01,2013-02-15 14:43:00,
2013-02-15 09:48:00,44.5,33.5,29.95,South,188,1.0,10.0,65,0.00,,CLR,0.00,VWS V13.01,2013-02-15 14:48:00,
2013-02-15 09:53:00,44.2,33.2,29.95,SSW,205,9.0,11.0,65,0.00,,CLR,0.00,VWS V13.01,2013-02-15 14:53:00,
2013-02-15 09:58:00,44.0,33.4,29.96,SW,217,4.0,12.0,66,0.00,,CLR,0.00,VWS V13.01,2013-02-15 14:58:00,
2013-02-15 10:03:00,44.1,33.5,29.97,SW,228,6.0,14.0,66,0.00,,CLR,0.00,VWS V13.01,2013-02-15 15:03:00,
2013-02-15 10:08:00,44.0,33.4,29.96,West,262,4.0,14.0,66,0.00,,CLR,0.00,VWS V13.01,2013-02-15 15:08:00,
2013-02-15 10:13:00,43.7,33.5,29.97,West,259,7.0,14.0,67,0.00,,CLR,0.00,VWS V13.01,2013-02-15 15:13:00,
2013-02-15 10:18:00,43.7,33.5,29.97,SW,225,5.0,14.0,67,0.00,,CLR,0.00,VWS V13.01,2013-02-15 15:18:00,
2013-02-15 10:23:00,44.0,33.8,29.97,SW,233,3.0,14.0,67,0.00,,CLR,0.00,VWS V13.01,2013-02-15 15:23:00,
2013-02-15 10:28:00,44.3,33.3,29.97,West,269,5.0,14.0,65,0.00,,CLR,0.00,VWS V13.01,2013-02-15 15:28:00,
2013-02-15 10:33:00,44.3,33.3,29.97,SSW,207,6.0,9.0,65,0.00,,CLR,0.00,VWS V13.01,2013-02-15 15:33:00,
2013-02-15 10:38:00,44.5,33.9,29.96,SW,216,5.0,9.0,66,0.00,,CLR,0.00,VWS V13.01,2013-02-15 15:38:00,
2013-02-15 10:43:00,44.6,33.2,29.97,SW,217,13.0,13.0,64,0.00,,CLR,0.00,VWS V13.01,2013-02-15 15:43:00,
2013-02-15 10:48:00,44.7,32.9,29.97,SSW,210,6.0,13.0,63,0.00,,CLR,0.00,VWS V13.01,2013-02-15 15:48:00,
2013-02-15 10:53:00,44.9,33.1,29.97,SW,231,4.0,13.0,63,0.00,,CLR,0.00,VWS V13.01,2013-02-15 15:53:00,
2013-02-15 10:58:00,45.0,32.8,29.96,WSW,252,2.0,13.0,62,0.00,,CLR,0.00,VWS V13.01,2013-02-15 15:58:00,
2013-02-15 11:03:00,45.1,32.9,29.97,West,271,2.0,9.0,62,0.00,,CLR,0.00,VWS V13.01,2013-02-15 16:03:00,
2013-02-15 11:08:00,45.2,33.0,29.97,SW,214,5.0,10.0,62,0.00,,CLR,0.00,VWS V13.01,2013-02-15 16:08:00,
2013-02-15 11:13:00,45.3,32.7,29.97,WNW,298,6.0,12.0,61,0.00,,CLR,0.00,VWS V13.01,2013-02-15 16:13:00,
2013-02-15 11:18:00,44.8,31.8,29.97,West,261,7.0,13.0,60,0.00,,CLR,0.00,VWS V13.01,2013-02-15 16:18:00,
2013-02-15 11:23:00,44.6,32.0,29.97,SSW,199,7.0,13.0,61,0.00,,CLR,0.00,VWS V13.01,2013-02-15 16:23:00,
2013-02-15 11:28:00,44.4,31.8,29.97,WSW,251,5.0,13.0,61,0.00,,CLR,0.00,VWS V13.01,2013-02-15 16:28:00,
2013-02-15 11:33:00,44.2,31.2,29.96,SW,214,7.0,11.0,60,0.00,,BKN043,0.00,VWS V13.01,2013-02-15 16:33:00,
2013-02-15 11:38:00,44.2,31.2,29.96,SSW,213,4.0,11.0,60,0.00,,BKN043,0.00,VWS V13.01,2013-02-15 16:38:00,
2013-02-15 11:43:00,44.5,31.1,29.96,SSW,197,6.0,12.0,59,0.00,,BKN043,0.00,VWS V13.01,2013-02-15 16:43:00,
2013-02-15 11:48:00,44.8,31.4,29.96,SSW,210,5.0,12.0,59,0.00,,BKN043,0.00,VWS V13.01,2013-02-15 16:48:00,
2013-02-15 11:53:00,45.4,31.1,29.96,WSW,244,9.0,16.0,57,0.00,,BKN043,0.00,VWS V13.01,2013-02-15 16:53:00,
2013-02-15 11:58:00,46.1,31.3,29.95,WSW,241,7.0,16.0,56,0.00,,BKN043,0.00,VWS V13.01,2013-02-15 16:58:00,
2013-02-15 12:03:00,46.7,31.9,29.95,South,187,2.0,12.0,56,0.00,,BKN043,0.00,VWS V13.01,2013-02-15 17:03:00,
2013-02-15 12:08:00,47.1,31.3,29.94,SW,224,6.0,12.0,54,0.00,,BKN043,0.00,VWS V13.01,2013-02-15 17:08:00,
2013-02-15 12:13:00,47.2,31.9,29.94,South,183,8.0,15.0,55,0.00,,BKN043,0.00,VWS V13.01,2013-02-15 17:13:00,
2013-02-15 12:18:00,47.3,32.0,29.94,SSW,200,11.0,15.0,55,0.00,,BKN043,0.00,VWS V13.01,2013-02-15 17:18:00,
2013-02-15 12:23:00,47.4,32.1,29.94,SSW,209,6.0,15.0,55,0.00,,BKN043,0.00,VWS V13.01,2013-02-15 17:23:00,
2013-02-15 12:28:00,47.6,31.8,29.94,SSW,213,3.0,15.0,54,0.00,,BKN043,0.00,VWS V13.01,2013-02-15 17:28:00,
2013-02-15 12:33:00,47.5,30.8,29.94,SW,232,1.0,11.0,52,0.00,,BKN043,0.00,VWS V13.01,2013-02-15 17:33:00,
2013-02-15 12:38:00,47.5,30.8,29.94,SW,226,5.0,11.0,52,0.00,,CLR,0.00,VWS V13.01,2013-02-15 17:38:00,
2013-02-15 12:43:00,47.6,30.9,29.93,WSW,251,2.0,11.0,52,0.00,,CLR,0.00,VWS V13.01,2013-02-15 17:43:00,
2013-02-15 12:48:00,47.5,30.8,29.93,WNW,288,4.0,11.0,52,0.00,,CLR,0.00,VWS V13.01,2013-02-15 17:48:00,
2013-02-15 12:53:00,47.2,30.5,29.93,SSW,205,5.0,11.0,52,0.00,,CLR,0.00,VWS V13.01,2013-02-15 17:53:00,
2013-02-15 12:58:00,47.1,30.4,29.93,WNW,285,5.0,11.0,52,0.00,,CLR,0.00,VWS V13.01,2013-02-15 17:58:00,
2013-02-15 13:03:00,47.0,29.3,29.93,WSW,237,4.0,8.0,50,0.00,,CLR,0.00,VWS V13.01,2013-02-15 18:03:00,
2013-02-15 13:08:00,46.7,29.5,29.93,WSW,255,6.0,11.0,51,0.00,,CLR,0.00,VWS V13.01,2013-02-15 18:08:00,
2013-02-15 13:13:00,46.3,29.2,29.93,SW,218,3.0,11.0,51,0.00,,CLR,0.00,VWS V13.01,2013-02-15 18:13:00,
2013-02-15 13:18:00,45.9,29.3,29.93,SW,234,3.0,12.0,52,0.00,,CLR,0.00,VWS V13.01,2013-02-15 18:18:00,
2013-02-15 13:23:00,45.6,28.5,29.93,West,271,5.0,12.0,51,0.00,,CLR,0.00,VWS V13.01,2013-02-15 18:23:00,
2013-02-15 13:28:00,45.4,28.4,29.93,WSW,241,4.0,12.0,51,0.00,,CLR,0.00,VWS V13.01,2013-02-15 18:28:00,
2013-02-15 13:33:00,45.5,28.4,29.93,SW,220,6.0,12.0,51,0.00,,CLR,0.00,VWS V13.01,2013-02-15 18:33:00,
2013-02-15 13:38:00,45.8,29.2,29.93,WSW,257,2.0,12.0,52,0.00,,CLR,0.00,VWS V13.01,2013-02-15 18:38:00,
2013-02-15 13:43:00,46.2,29.1,29.93,SSW,212,8.0,12.0,51,0.00,,CLR,0.00,VWS V13.01,2013-02-15 18:43:00,
2013-02-15 13:48:00,46.5,28.9,29.93,SW,227,4.0,12.0,50,0.00,,CLR,0.00,VWS V13.01,2013-02-15 18:48:00,
2013-02-15 13:53:00,46.8,29.2,29.93,SW,227,6.0,12.0,50,0.00,,CLR,0.00,VWS V13.01,2013-02-15 18:53:00,
2013-02-15 13:58:00,47.1,28.9,29.93,West,275,3.0,12.0,49,0.00,,CLR,0.00,VWS V13.01,2013-02-15 18:58:00,
2013-02-15 14:03:00,47.3,29.1,29.93,SW,230,3.0,10.0,49,0.00,,CLR,0.00,VWS V13.01,2013-02-15 19:03:00,
2013-02-15 14:08:00,47.7,29.5,29.92,SW,232,6.0,10.0,49,0.00,,CLR,0.00,VWS V13.01,2013-02-15 19:08:00,
2013-02-15 14:13:00,47.9,29.7,29.92,SW,215,4.0,10.0,49,0.00,,CLR,0.00,VWS V13.01,2013-02-15 19:13:00,
2013-02-15 14:18:00,48.2,29.5,29.92,SSW,206,7.0,10.0,48,0.00,,CLR,0.00,VWS V13.01,2013-02-15 19:18:00,
2013-02-15 14:23:00,48.5,30.2,29.92,SW,214,2.0,11.0,49,0.00,,CLR,0.00,VWS V13.01,2013-02-15 19:23:00,
2013-02-15 14:28:00,48.8,30.5,29.92,South,178,6.0,11.0,49,0.00,,CLR,0.00,VWS V13.01,2013-02-15 19:28:00,
2013-02-15 14:33:00,49.3,30.5,29.92,SSE,166,8.0,12.0,48,0.00,,CLR,0.00,VWS V13.01,2013-02-15 19:33:00,
2013-02-15 14:38:00,49.4,30.5,29.92,SW,226,2.0,12.0,48,0.00,,CLR,0.00,VWS V13.01,2013-02-15 19:38:00,
2013-02-15 14:43:00,49.6,30.7,29.92,SSW,194,9.0,12.0,48,0.00,,CLR,0.00,VWS V13.01,2013-02-15 19:43:00,
2013-02-15 14:48:00,49.6,30.7,29.92,South,171,5.0,12.0,48,0.00,,CLR,0.00,VWS V13.01,2013-02-15 19:48:00,
2013-02-15 14:53:00,49.8,30.9,29.92,SSE,155,2.0,12.0,48,0.00,,CLR,0.00,VWS V13.01,2013-02-15 19:53:00,
2013-02-15 14:58:00,49.7,30.3,29.92,South,173,6.0,12.0,47,0.00,,CLR,0.00,VWS V13.01,2013-02-15 19:58:00,
2013-02-15 15:03:00,49.4,30.5,29.92,SSW,210,5.0,6.0,48,0.00,,CLR,0.00,VWS V13.01,2013-02-15 20:03:00,
2013-02-15 15:08:00,48.8,29.5,29.92,SSW,213,8.0,9.0,47,0.00,,CLR,0.00,VWS V13.01,2013-02-15 20:08:00,
2013-02-15 15:13:00,48.3,29.5,29.92,SW,233,1.0,9.0,48,0.00,,CLR,0.00,VWS V13.01,2013-02-15 20:13:00,
2013-02-15 15:18:00,48.0,29.3,29.92,WSW,239,4.0,9.0,48,0.00,,CLR,0.00,VWS V13.01,2013-02-15 20:18:00,
2013-02-15 15:23:00,47.7,29.5,29.92,SSW,202,6.0,9.0,49,0.00,,CLR,0.00,VWS V13.01,2013-02-15 20:23:00,
2013-02-15 15:28:00,47.6,29.4,29.92,West,264,0.0,9.0,49,0.00,,CLR,0.00,VWS V13.01,2013-02-15 20:28:00,
2013-02-15 15:33:00,47.3,28.6,29.92,SW,226,6.0,7.0,48,0.00,,SCT100,0.00,VWS V13.01,2013-02-15 20:33:00,
2013-02-15 15:38:00,47.0,28.9,29.92,SSW,204,3.0,8.0,49,0.00,,SCT100,0.00,VWS V13.01,2013-02-15 20:38:00,
2013-02-15 15:43:00,46.8,29.2,29.93,SSW,208,3.0,8.0,50,0.00,,SCT100,0.00,VWS V13.01,2013-02-15 20:43:00,
2013-02-15 15:48:00,46.8,28.7,29.93,SW,224,1.0,8.0,49,0.00,,SCT100,0.00,VWS V13.01,2013-02-15 20:48:00,
2013-02-15 15:53:00,46.8,29.2,29.92,West,268,0.0,8.0,50,0.00,,SCT100,0.00,VWS V13.01,2013-02-15 20:53:00,
2013-02-15 15:58:00,46.8,29.2,29.93,SSW,202,1.0,8.0,50,0.00,,SCT100,0.00,VWS V13.01,2013-02-15 20:58:00,
2013-02-15 16:03:00,46.7,28.6,29.93,SW,231,3.0,5.0,49,0.00,,SCT100,0.00,VWS V13.01,2013-02-15 21:03:00,
2013-02-15 16:08:00,46.6,29.0,29.92,South,185,3.0,6.0,50,0.00,,SCT100,0.00,VWS V13.01,2013-02-15 21:08:00,
2013-02-15 16:13:00,46.4,28.8,29.93,SSW,201,3.0,7.0,50,0.00,,SCT100,0.00,VWS V13.01,2013-02-15 21:13:00,
2013-02-15 16:18:00,46.4,29.3,29.92,SSW,204,0.0,7.0,51,0.00,,SCT100,0.00,VWS V13.01,2013-02-15 21:18:00,
2013-02-15 16:23:00,46.6,29.0,29.93,SSE,162,2.0,7.0,50,0.00,,SCT100,0.00,VWS V13.01,2013-02-15 21:23:00,
2013-02-15 16:28:00,46.5,28.9,29.92,SSW,194,2.0,7.0,50,0.00,,SCT100,0.00,VWS V13.01,2013-02-15 21:28:00,
2013-02-15 16:33:00,46.3,28.7,29.93,SSW,210,2.0,5.0,50,0.00,,SCT100,0.00,VWS V13.01,2013-02-15 21:33:00,
2013-02-15 16:38:00,46.0,28.4,29.93,SW,219,4.0,6.0,50,0.00,,OVC080,0.00,VWS V13.01,2013-02-15 21:38:00,
2013-02-15 16:43:00,45.7,28.6,29.93,SSW,206,0.0,6.0,51,0.00,,OVC080,0.00,VWS V13.01,2013-02-15 21:43:00,
2013-02-15 16:48:00,45.5,28.9,29.93,SSW,205,6.0,6.0,52,0.00,,OVC080,0.00,VWS V13.01,2013-02-15 21:48:00,
2013-02-15 16:53:00,45.3,28.7,29.93,SW,215,3.0,6.0,52,0.00,,OVC080,0.00,VWS V13.01,2013-02-15 21:53:00,
2013-02-15 16:58:00,45.2,28.6,29.93,SSW,207,0.0,6.0,52,0.00,,OVC080,0.00,VWS V13.01,2013-02-15 21:58:00,
2013-02-15 17:03:00,45.1,28.5,29.93,SW,227,2.0,6.0,52,0.00,,OVC080,0.00,VWS V13.01,2013-02-15 22:03:00,
2013-02-15 17:08:00,44.9,28.4,29.93,WSW,255,1.0,7.0,52,0.00,,OVC080,0.00,VWS V13.01,2013-02-15 22:08:00,
2013-02-15 17:13:00,44.7,28.6,29.93,West,273,3.0,7.0,53,0.00,,OVC080,0.00,VWS V13.01,2013-02-15 22:13:00,
2013-02-15 17:18:00,44.5,28.9,29.93,WNW,287,1.0,7.0,54,0.00,,OVC080,0.00,VWS V13.01,2013-02-15 22:18:00,
2013-02-15 17:23:00,44.3,28.7,29.93,WNW,289,1.0,7.0,54,0.00,,OVC080,0.00,VWS V13.01,2013-02-15 22:23:00,
2013-02-15 17:28:00,44.0,28.9,29.93,WNW,289,1.0,7.0,55,0.00,,OVC080,0.00,VWS V13.01,2013-02-15 22:28:00,
2013-02-15 17:33:00,43.8,29.1,29.93,WNW,289,1.0,3.0,56,0.00,,OVC070,0.00,VWS V13.01,2013-02-15 22:33:00,
2013-02-15 17:38:00,43.6,29.0,29.93,West,280,1.0,10.0,56,0.00,,OVC070,0.00,VWS V13.01,2013-02-15 22:38:00,
2013-02-15 17:43:00,43.4,29.2,29.93,West,278,2.0,10.0,57,0.00,,OVC070,0.00,VWS V13.01,2013-02-15 22:43:00,
2013-02-15 17:48:00,43.3,29.1,29.94,WNW,298,2.0,10.0,57,0.00,,OVC070,0.00,VWS V13.01,2013-02-15 22:48:00,
2013-02-15 17:53:00,43.2,29.4,29.94,SW,220,0.0,10.0,58,0.00,,OVC070,0.00,VWS V13.01,2013-02-15 22:53:00,
2013-02-15 17:58:00,43.0,29.2,29.94,SW,232,0.0,10.0,58,0.00,,OVC070,0.00,VWS V13.01,2013-02-15 22:58:00,
2013-02-15 18:03:00,42.9,29.2,29.93,West,260,3.0,6.0,58,0.00,,OVC070,0.00,VWS V13.01,2013-02-15 23:03:00,
2013-02-15 18:08:00,42.8,29.1,29.93,WSW,249,2.0,6.0,58,0.00,,OVC070,0.00,VWS V13.01,2013-02-15 23:08:00,
2013-02-15 18:13:00,42.7,29.0,29.94,WSW,258,2.0,6.0,58,0.00,,OVC070,0.00,VWS V13.01,2013-02-15 23:13:00,
2013-02-15 18:18:00,42.6,29.3,29.93,WSW,253,4.0,6.0,59,0.00,,OVC070,0.00,VWS V13.01,2013-02-15 23:18:00,
2013-02-15 18:24:00,42.5,29.6,29.94,WSW,246,4.0,8.0,60,0.00,,OVC070,0.00,VWS V13.01,2013-02-15 23:24:00,
2013-02-15 18:29:00,42.5,30.0,29.94,WSW,238,4.0,9.0,61,0.00,,OVC070,0.00,VWS V13.01,2013-02-15 23:29:00,
2013-02-15 18:34:00,42.3,30.6,29.94,WSW,247,1.0,7.0,63,0.00,,OVC048,0.00,VWS V13.01,2013-02-15 23:34:00,
2013-02-15 18:39:00,42.1,31.2,29.94,SSW,210,4.0,7.0,65,0.00,,OVC048,0.00,VWS V13.01,2013-02-15 23:39:00,
2013-02-15 18:44:00,41.8,32.0,29.95,WSW,247,4.0,8.0,68,0.00,,OVC048,0.00,VWS V13.01,2013-02-15 23:44:00,
2013-02-15 18:49:00,41.3,32.6,29.95,West,261,6.0,12.0,71,0.00,,OVC048,0.00,VWS V13.01,2013-02-15 23:49:00,
2013-02-15 18:54:00,40.9,32.6,29.94,SW,232,3.0,12.0,72,0.00,,OVC048,0.00,VWS V13.01,2013-02-15 23:54:00,
2013-02-15 18:59:00,40.5,32.9,29.95,SW,224,2.0,12.0,74,0.00,,OVC048,0.00,VWS V13.01,2013-02-15 23:59:00,
2013-02-15 19:04:00,40.2,32.6,29.95,West,272,1.0,4.0,74,0.00,,OVC048,0.00,VWS V13.01,2013-02-16 00:04:00,
2013-02-15 19:09:00,39.9,33.3,29.95,SSW,210,4.0,10.0,77,0.00,,OVC048,0.00,VWS V13.01,2013-02-16 00:09:00,
2013-02-15 19:14:00,39.6,34.0,29.96,SSW,193,6.0,10.0,80,0.01,,OVC048,0.01,VWS V13.01,2013-02-16 00:14:00,
2013-02-15 19:19:00,39.2,33.2,29.96,West,277,5.0,10.0,79,0.01,,OVC048,0.01,VWS V13.01,2013-02-16 00:19:00,
2013-02-15 19:24:00,38.9,33.6,29.96,SW,232,0.0,10.0,81,0.01,,OVC048,0.01,VWS V13.01,2013-02-16 00:24:00,
2013-02-15 19:29:00,38.6,33.3,29.96,West,274,0.0,10.0,81,0.01,,OVC048,0.01,VWS V13.01,2013-02-16 00:29:00,
2013-02-15 19:34:00,38.3,33.3,29.96,West,267,0.0,2.0,82,0.01,,-RA,0.01,VWS V13.01,2013-02-16 00:34:00,
2013-02-15 19:39:00,38.0,33.3,29.96,West,264,1.0,4.0,83,0.02,,-RA,0.02,VWS V13.01,2013-02-16 00:39:00,
2013-02-15 19:44:00,37.7,33.3,29.96,West,263,0.0,4.0,84,0.02,,-RA,0.02,VWS V13.01,2013-02-16 00:44:00,
2013-02-15 19:49:00,37.5,33.1,29.97,SW,235,2.0,4.0,84,0.03,,-RA,0.03,VWS V13.01,2013-02-16 00:49:00,
2013-02-15 19:54:00,37.3,33.2,29.96,SW,230,0.0,4.0,85,0.03,,-RA,0.03,VWS V13.01,2013-02-16 00:54:00,
2013-02-15 19:59:00,37.1,33.3,29.96,SW,227,0.0,5.0,86,0.03,,-RA,0.03,VWS V13.01,2013-02-16 00:59:00,
2013-02-15 20:04:00,37.0,33.2,29.96,SW,227,0.0,0.0,86,0.03,,-RA,0.03,VWS V13.01,2013-02-16 01:04:00,
2013-02-15 20:09:00,36.8,33.0,29.96,West,259,0.0,3.0,86,0.03,,-RA,0.03,VWS V13.01,2013-02-16 01:09:00,
2013-02-15 20:14:00,36.7,33.2,29.97,WSW,238,0.0,3.0,87,0.03,,-RA,0.03,VWS V13.01,2013-02-16 01:14:00,
2013-02-15 20:19:00,36.5,33.0,29.97,WSW,239,0.0,3.0,87,0.04,,-RA,0.04,VWS V13.01,2013-02-16 01:19:00,
2013-02-15 20:24:00,36.3,33.1,29.97,West,271,0.0,3.0,88,0.05,,-RA,0.05,VWS V13.01,2013-02-16 01:24:00,
2013-02-15 20:29:00,36.1,32.9,29.96,West,270,0.0,3.0,88,0.05,,-RA,0.05,VWS V13.01,2013-02-16 01:29:00,
2013-02-15 20:34:00,35.9,33.0,29.97,West,259,0.0,1.0,89,0.04,,-RA,0.05,VWS V13.01,2013-02-16 01:34:00,
2013-02-15 20:39:00,35.8,32.9,29.97,SSW,212,1.0,3.0,89,0.05,,-RA,0.06,VWS V13.01,2013-02-16 01:39:00,
2013-02-15 20:44:00,35.7,32.8,29.97,West,260,0.0,3.0,89,0.05,,-RA,0.06,VWS V13.01,2013-02-16 01:44:00,
2013-02-15 20:49:00,35.6,33.0,29.98,WSW,254,0.0,3.0,90,0.05,,-RA,0.06,VWS V13.01,2013-02-16 01:49:00,
2013-02-15 20:54:00,35.5,32.9,29.97,SW,229,0.0,4.0,90,0.05,,-RA,0.06,VWS V13.01,2013-02-16 01:54:00,
2013-02-15 20:59:00,35.4,33.0,29.97,SW,229,1.0,4.0,91,0.05,,-RA,0.06,VWS V13.01,2013-02-16 01:59:00,
2013-02-15 21:04:00,35.3,32.9,29.97,SW,227,0.0,1.0,91,0.04,,-RA,0.07,VWS V13.01,2013-02-16 02:04:00,
2013-02-15 21:09:00,35.3,32.9,29.97,SW,227,0.0,1.0,91,0.04,,-RA,0.07,VWS V13.01,2013-02-16 02:09:00,
2013-02-15 21:14:00,35.2,32.8,29.97,SW,227,1.0,1.0,91,0.04,,-RA,0.07,VWS V13.01,2013-02-16 02:14:00,
2013-02-15 21:19:00,35.1,32.7,29.97,SW,227,0.0,1.0,91,0.04,,-RA,0.07,VWS V13.01,2013-02-16 02:19:00,
2013-02-15 21:24:00,35.0,32.6,29.97,SW,227,0.0,1.0,91,0.04,,-RA,0.07,VWS V13.01,2013-02-16 02:24:00,
2013-02-15 21:29:00,34.9,32.5,29.97,SW,227,2.0,2.0,91,0.04,,-RA,0.07,VWS V13.01,2013-02-16 02:29:00,
2013-02-15 21:34:00,34.9,32.5,29.98,SSE,165,0.0,3.0,91,0.02,,-RA,0.07,VWS V13.01,2013-02-16 02:34:00,
2013-02-15 21:39:00,34.8,32.5,29.97,SSE,165,0.0,3.0,91,0.02,,-RA,0.07,VWS V13.01,2013-02-16 02:39:00,
2013-02-15 21:44:00,34.8,32.5,29.97,SSE,165,0.0,3.0,91,0.02,,-RA,0.07,VWS V13.01,2013-02-16 02:44:00,
2013-02-15 21:49:00,34.7,32.3,29.98,SSE,165,0.0,3.0,91,0.02,,-RA,0.07,VWS V13.01,2013-02-16 02:49:00,
2013-02-15 21:54:00,34.7,32.3,29.98,SSE,165,0.0,3.0,91,0.02,,-RA,0.07,VWS V13.01,2013-02-16 02:54:00,
2013-02-15 21:59:00,34.6,32.2,29.98,SSE,165,1.0,3.0,91,0.02,,-RA,0.07,VWS V13.01,2013-02-16 02:59:00,
2013-02-15 22:04:00,34.5,32.2,29.98,SSE,165,0.0,2.0,91,0.01,,-RA,0.07,VWS V13.01,2013-02-16 03:04:00,
2013-02-15 22:09:00,34.5,32.2,29.98,SSE,165,0.0,2.0,91,0.01,,-RA,0.07,VWS V13.01,2013-02-16 03:09:00,
2013-02-15 22:14:00,34.5,32.2,29.97,SSE,165,0.0,2.0,91,0.01,,-RA,0.07,VWS V13.01,2013-02-16 03:14:00,
2013-02-15 22:19:00,34.4,32.0,29.97,SSE,165,0.0,2.0,91,0.01,,-RA,0.07,VWS V13.01,2013-02-16 03:19:00,
2013-02-15 22:24:00,34.4,32.0,29.97,SSE,165,0.0,2.0,91,0.02,,-RA,0.08,VWS V13.01,2013-02-16 03:24:00,
2013-02-15 22:29:00,34.4,32.3,29.97,SSE,165,0.0,2.0,92,0.02,,-RA,0.08,VWS V13.01,2013-02-16 03:29:00,
2013-02-15 22:34:00,34.4,32.0,29.97,SSE,165,0.0,0.0,91,0.01,,,0.08,VWS V13.01,2013-02-16 03:34:00,
2013-02-15 22:39:00,34.3,32.2,29.97,SSE,165,0.0,0.0,92,0.01,,,0.08,VWS V13.01,2013-02-16 03:39:00,
2013-02-15 22:44:00,34.3,32.2,29.98,SSE,165,0.0,0.0,92,0.01,,,0.08,VWS V13.01,2013-02-16 03:44:00,
2013-02-15 22:49:00,34.2,32.1,29.97,SSE,165,0.0,0.0,92,0.01,,,0.08,VWS V13.01,2013-02-16 03:49:00,
2013-02-15 22:54:00,34.2,32.1,29.97,SSE,165,0.0,0.0,92,0.01,,,0.08,VWS V13.01,2013-02-16 03:54:00,
2013-02-15 22:59:00,34.1,32.0,29.97,SSE,165,0.0,0.0,92,0.01,,,0.08,VWS V13.01,2013-02-16 03:59:00,
2013-02-15 23:04:00,34.0,31.9,29.97,SSE,165,0.0,0.0,92,0.01,,,0.08,VWS V13.01,2013-02-16 04:04:00,
2013-02-15 23:09:00,33.9,31.8,29.97,SSE,165,0.0,0.0,92,0.01,,,0.08,VWS V13.01,2013-02-16 04:09:00,
2013-02-15 23:14:00,33.9,31.8,29.96,SSE,165,0.0,0.0,92,0.01,,,0.08,VWS V13.01,2013-02-16 04:14:00,
2013-02-15 23:19:00,33.8,31.7,29.97,SSE,165,0.0,0.0,92,0.01,,,0.08,VWS V13.01,2013-02-16 04:19:00,
2013-02-15 23:24:00,33.7,31.6,29.97,SSE,165,0.0,0.0,92,0.01,,,0.08,VWS V13.01,2013-02-16 04:24:00,
2013-02-15 23:29:00,33.7,31.6,29.96,SSE,165,0.0,0.0,92,0.01,,,0.08,VWS V13.01,2013-02-16 04:29:00,
2013-02-15 23:34:00,33.6,31.5,29.96,SSE,165,0.0,0.0,92,0.00,,,0.08,VWS V13.01,2013-02-16 04:34:00,
2013-02-15 23:39:00,33.6,31.5,29.97,SSE,165,0.0,0.0,92,0.00,,,0.08,VWS V13.01,2013-02-16 04:39:00,
2013-02-15 23:44:00,33.5,31.4,29.97,SSE,165,0.0,0.0,92,0.00,,,0.08,VWS V13.01,2013-02-16 04:44:00,
2013-02-15 23:49:00,33.5,31.7,29.97,SSE,165,0.0,0.0,93,0.00,,,0.08,VWS V13.01,2013-02-16 04:49:00,
2013-02-15 23:54:00,33.5,31.7,29.97,SSE,165,0.0,0.0,93,0.00,,,0.08,VWS V13.01,2013-02-16 04:54:00,
2013-02-15 23:59:00,33.4,31.6,29.97,SSE,165,0.0,0.0,93,0.00,,,0.08,VWS V13.01,2013-02-16 04:59:00,